STARLINK-35921, 66640

Orbit data source: Space-Track

STARLINK-35921, 66640 is a payload satellite owned by SpaceX/Seattle (US) in LEO that was launched on Sun, 23 Nov 2025 UTC via an FALCON 9 launch vehicle from the Air Force Western Test Range (AFWTR). Payload-class satellites include a variety of spacecraft equipped with specific instruments for various scientific and technological missions. These include communications satellites like Starlink; space stations such as the ISS; scientific satellites like the Hubble; Earth observation satellites from companies like Planet Labs, Umbra, and HawkEye 360; GPS; miniature CubeSats for education and research; and military/defense satellites.

Loading next visibility...
Identifier
66640, 2025-271Z
Orbit
LEO
Country
Flag of USUS
Related business
Manufacturer
SpaceX/Seattle
Mission
Operational Commercial Communications
Bus & Motor
STARLINK V2MO, Unknown motor
Mass
575 kg wet, ~530 kg dry
Launch date (UTC)
2025-11-23 (5 months ago)
Launch vehicle
FALCON 9
Launch site
Air Force Western Test Range (AFWTR)
Object type
Payload
Rocket body
Debris
Shape & HBR
Box + 2 Pan, 17.7 m
Radar Cross Section
36.964 m²

Expand to show TLE details & history
Last TLE update: 20 hours ago

TLE from 20 hours ago
0 STARLINK-35921
1 66640U 25271Z   26127.68642498  .00027378  00000-0  93200-3 0  9998
2 66640  53.1572 225.5895 0001063 101.4278 258.6843 15.30237967 26609
Epoch: 2026-05-07T16:28Z
TLE epoch observation values (Epoch: 2026-05-07T16:28:27.118Z)
Latitude
0.00006°
Longitude
112.94755°
Altitude
476.144 km
Speed
7.629 km/s
True Right ascension
15h 02m 21s
True Declination
0° 00' 00"
Sunlit
Object was in full shadow at epoch
Visualization orbit readout
Latitude
Unknown
Longitude
Unknown
Altitude
Unknown
Speed
Unknown
Apparent Right ascension
Unknown
Apparent Declination
Unknown
Sunlit
N/A
Visualization observer readout
Local Sidereal Time
20:50:16
Azimuth
Unknown
Elevation
Unknown
Doppler factor
Unknown
Orbital elements
Apogee altitude
476.087 km
Perigee altitude
474.63 km
Semi-major axis
6,853.496 km
Eccentricity
0.00011
Inclination
53.1572°
RAAN
225.5895°
Arg. of periapsis
101.4278°
True anomaly
258.67236°
Mean anomaly
258.6843°
Eccentric anomaly
258.67833°
Mean motion
3.82538 °/min
Orbital period
94.11 mins
BSTAR
0.000932
Loading maneuver chart data...
Computing Atmospheric mass density...
Loading historical data...
Loading historical data...
Loading historical data...
Loading historical data...
Loading historical data...
Loading historical data...
Loading historical data...

Documentation

Showing up to 5 results
|